GW2085 Weather Reports


Display with metric or nautical units.
time (UTC)temp
F
wind
direction
speed
MPH
gust
MPH
rain 1hr
in
rain 24hr
in
rain mn
in
humidity
%
barometer
mb
20260505230100 65 266 4.0 11.0 0.00 0.48 0.48 51 1014.5
20260505224554 65 262 6.0 12.0 0.00 0.48 0.48 49 1014.5
20260505223053 66 282 5.0 10.0 0.00 0.48 0.48 49 1014.5
20260505221601 64 167 5.0 13.0 0.00 0.48 0.48 51 1014.7
20260505220104 66 267 4.0 9.0 0.00 0.48 0.48 49 1014.8
20260505214553 65 248 7.0 12.0 0.00 0.48 0.48 48 1015.0
20260505213050 66 15 4.0 13.0 0.00 0.48 0.48 48 1015.0
20260505211549 66 266 4.0 13.0 0.00 0.48 0.48 53 1015.1
20260505210055 66 214 5.0 12.0 0.00 0.48 0.48 52 1015.1
20260505204557 67 220 2.0 10.0 0.00 0.48 0.48 51 1015.1
20260505203049 66 248 3.0 11.0 0.00 0.48 0.48 49 1015.2
20260505201551 66 271 3.0 10.0 0.00 0.48 0.48 52 1015.1
20260505200054 66 231 3.0 11.0 0.00 0.48 0.48 47 1015.2
20260505194558 66 276 2.0 11.0 0.00 0.48 0.48 51 1015.2
20260505193051 65 278 4.0 10.0 0.00 0.48 0.48 53 1015.4
20260505191554 63 267 2.0 10.0 0.00 0.48 0.48 57 1015.5
20260505190049 64 242 6.0 11.0 0.00 0.48 0.48 55 1015.5
20260505184553 65 236 4.0 8.0 0.00 0.48 0.48 60 1015.5
20260505183054 62 135 1.0 10.0 0.00 0.48 0.48 69 1015.5
20260505181555 60 288 1.0 4.0 0.00 0.48 0.48 81 1015.7
20260505180053 58 276 2.0 7.0 0.00 0.48 0.48 84 1015.6
20260505174551 57 240 1.0 6.0 0.00 0.48 0.48 90 1015.5
20260505173050 56 231 3.0 8.0 0.00 0.48 0.48 90 1015.4
20260505171550 56 0 1.0 3.0 0.00 0.48 0.48 92 1015.2
20260505170051 56 0 0.0 2.0 0.01 0.48 0.48 92 1015.1
20260505164600 56 187 0.0 2.0 0.01 0.48 0.48 93 1015.0
20260505163052 56 0 0.0 2.0 0.01 0.48 0.48 93 1014.9
20260505161555 55 153 0.0 1.0 0.01 0.48 0.48 92 1014.6
20260505153108 55 0 0.0 3.0 0.00 0.47 0.47 92 1014.3
20260505151551 55 0 0.0 2.0 0.00 0.47 0.47 93 1014.3
20260505124555 54 0 0.0 1.0 0.10 0.33 0.33 92 1013.3
20260505123058 54 0 0.0 0.0 0.00 0.23 0.23 92 1013.3
20260505121556 54 0 0.0 0.0 0.00 0.23 0.23 92 1013.2
20260505120105 54 0 0.0 0.0 0.00 0.23 0.23 92 1013.2
20260505114550 54 0 0.0 0.0 0.00 0.23 0.23 92 1013.2
20260505113113 54 0 0.0 0.0 0.00 0.23 0.23 91 1013.2
20260505111559 54 0 0.0 1.0 0.00 0.23 0.23 91 1013.4
20260505101555 53 0 0.0 1.0 0.21 0.23 0.23 91 1013.4
20260505100055 54 0 0.0 2.0 0.14 0.16 0.16 91 1013.5
20260505094556 54 252 0.0 2.0 0.06 0.07 0.07 91 1013.6
20260505093107 54 0 0.0 2.0 0.01 0.02 0.02 91 1013.6
20260505091558 54 324 0.0 3.0 0.01 0.02 0.02 90 1013.6
20260505090054 54 300 0.0 2.0 0.01 0.02 0.02 90 1013.8
20260505084555 54 0 0.0 1.0 0.01 0.01 0.01 90 1013.9
20260505083054 54 0 0.0 0.0 0.01 0.01 0.01 90 1013.9
20260505081554 54 2 0.0 2.0 0.01 0.01 0.01 90 1014.2
20260505080106 55 0 0.0 4.0 0.01 0.01 0.01 89 1014.4
20260505074556 55 0 0.0 0.0 0.00 0.01 0.00 89 1014.5
20260505073100 55 0 0.0 1.0 0.00 0.01 0.00 89 1014.5
20260505071554 55 0 0.0 1.0 0.00 0.01 0.00 89 1014.6
20260505070054 55 0 0.0 0.0 0.00 0.01 0.00 89 1014.7
20260505064600 55 0 0.0 0.0 0.00 0.01 0.01 89 1014.7
20260505063102 55 0 0.0 1.0 0.00 0.01 0.01 88 1014.8
20260505061558 55 0 0.0 1.0 0.00 0.01 0.01 87 1015.0
20260505060059 55 281 0.0 1.0 0.00 0.01 0.01 86 1015.1
20260505054557 55 0 0.0 2.0 0.00 0.01 0.01 85 1015.2
20260505053113 56 0 0.0 2.0 0.00 0.01 0.01 82 1015.3
20260505051552 57 0 0.0 3.0 0.00 0.01 0.01 80 1015.3
20260505050107 59 222 0.0 0.0 0.00 0.01 0.01 76 1015.5
20260505041554 58 0 0.0 5.0 0.00 0.01 0.01 76 1015.4
20260505040058 58 210 1.0 3.0 0.00 0.01 0.01 76 1015.3
20260505034616 58 238 2.0 6.0 0.00 0.01 0.01 76 1015.3
20260505033057 59 200 0.0 3.0 0.00 0.01 0.01 76 1015.2
20260505031556 59 228 1.0 4.0 0.00 0.01 0.01 75 1015.1
20260505030055 59 278 2.0 6.0 0.00 0.01 0.01 74 1014.8
20260505024552 59 224 1.0 5.0 0.00 0.01 0.01 74 1014.6
20260505023055 60 271 1.0 6.0 0.00 0.01 0.01 72 1014.6
20260505021554 60 251 2.0 8.0 0.00 0.01 0.01 71 1014.6
20260505020058 60 138 3.0 9.0 0.00 0.01 0.01 69 1014.4
20260505014548 62 270 4.0 9.0 0.00 0.01 0.01 68 1014.5
20260505013055 63 257 2.0 9.0 0.00 0.01 0.01 65 1014.5
20260505011608 64 311 2.0 7.0 0.00 0.01 0.01 60 1014.5
20260505010057 64 109 2.0 8.0 0.00 0.01 0.01 62 1014.8
20260505004550 65 287 3.0 10.0 0.00 0.01 0.01 56 1014.6
20260505003053 66 276 1.0 11.0 0.00 0.01 0.01 56 1014.7
20260505001604 65 64 2.0 9.0 0.00 0.01 0.01 52 1014.9
20260505000107 66 245 4.0 11.0 0.00 0.01 0.01 51 1014.9
20260504234557 66 352 3.0 11.0 0.00 0.01 0.01 52 1015.0
20260504233110 66 268 6.0 12.0 0.00 0.01 0.01 50 1014.8
20260504231549 66 210 3.0 11.0 0.00 0.01 0.01 51 1014.8